Weather History for London-Corbin, KY

Change the Weather History Date:

Saturday, November 24, 2012

  Actual Average Record
Temperature  
Mean Temperature 30 °F 45 °F  
Max Temperature 38 °F 55 °F 74 °F (1973)
Min Temperature 22 °F 34 °F 9 °F (1970)
Degree Days  
Heating Degree Days 35 20  
Month to date heating degree days 500 396  
Since 1 July heating degree days 899 702  
Cooling Degree Days 0 0  
Month to date cooling degree days 0 0  
Year to date cooling degree days 1226 1188  
Moisture  
Dew Point 20 °F    
Average Humidity 65    
Maximum Humidity 81    
Minimum Humidity 48    
Precipitation  
Precipitation 0.00 in 0.13 in 1.25 in (2001)
Month to date precipitation 0.83 2.97  
Year to date precipitation 40.04 42.04  
Sea Level Pressure  
Sea Level Pressure 30.20 in    
Wind  
Wind Speed 5 mph (NW)    
Max Wind Speed 13 mph    
Max Gust Speed 17 mph    
Visibility 10 miles    
Events      
T = Trace of Precipitation, MM = Missing Value Source: NWS Daily Summary

Daily Weather History Graph

Daily Weather History Graph

Search for Another Location

Airport:

Trip Planner

Search our weather history database for the weather conditions in past years. The results will help you decide how hot, cold, wet, or windy it might be!

Date:

Astronomy

Nov. 24, 2012 Rise Set
Actual Time 7:24 AM EST 5:21 PM EST
Civil Twilight 6:56 AM EST 5:49 PM EST
Nautical Twilight 6:24 AM EST 6:21 PM EST
Astronomical Twilight 5:53 AM EST 6:52 PM EST
Moon 3:02 PM EST (11/24) 3:44 AM EST (11/24)
Length of Visible Light 10h 53m
Length of Day
9h 56m
Waxing Gibbous, 87% of the Moon is Illuminated
Nov 24
Waxing Gibbous
Nov 28
Full
Dec 6
Last Quarter
Dec 13
New
Dec 20
First Quarter

Hourly Weather History & Observations

Time (EST) Temp. Windchill Dew Point Humidity Pressure Visibility Wind Dir Wind Speed Gust Speed Precip Events Conditions
12:53 AM 36.0 °F 28.5 °F 25.0 °F 64% 30.16 in 10.0 mi NW 10.4 mph - N/A   Overcast
1:53 AM 35.1 °F 29.3 °F 25.0 °F 67% 30.15 in 10.0 mi WNW 6.9 mph - N/A   Overcast
2:51 AM 33.8 °F 27.0 °F 23.0 °F 65% 30.15 in 10.0 mi NNW 8.1 mph - N/A   Overcast
2:53 AM 34.0 °F 27.2 °F 23.0 °F 64% 30.16 in 10.0 mi NNW 8.1 mph - N/A   Overcast
3:29 AM 33.8 °F 27.7 °F 21.2 °F 60% 30.16 in 10.0 mi NW 6.9 mph - N/A   Overcast
3:53 AM 32.0 °F 25.6 °F 21.0 °F 64% 30.17 in 10.0 mi NNW 6.9 mph - N/A   Overcast
4:53 AM 28.9 °F 23.9 °F 19.0 °F 67% 30.17 in 10.0 mi NNW 4.6 mph - N/A   Clear
5:53 AM 27.0 °F 20.5 °F 18.0 °F 69% 30.19 in 10.0 mi WNW 5.8 mph - N/A   Partly Cloudy
6:53 AM 26.1 °F 19.4 °F 18.0 °F 71% 30.20 in 10.0 mi WNW 5.8 mph - N/A   Scattered Clouds
7:04 AM 24.8 °F 19.1 °F 17.6 °F 74% 30.19 in 10.0 mi WNW 4.6 mph - N/A   Mostly Cloudy
7:53 AM 27.0 °F 20.5 °F 19.0 °F 72% 30.23 in 10.0 mi West 5.8 mph - N/A   Overcast
8:53 AM 28.0 °F 20.8 °F 19.9 °F 72% 30.23 in 10.0 mi WNW 6.9 mph - N/A   Overcast
9:53 AM 28.9 °F 22.8 °F 19.9 °F 69% 30.25 in 10.0 mi WNW 5.8 mph - N/A   Mostly Cloudy
10:36 AM 30.2 °F 22.6 °F 19.4 °F 64% 30.22 in 10.0 mi West 8.1 mph - N/A   Scattered Clouds
10:45 AM 30.2 °F 26.7 °F 19.4 °F 64% 30.22 in 10.0 mi NW 3.5 mph - N/A   Mostly Cloudy
10:53 AM 30.9 °F 25.2 °F 19.9 °F 64% 30.25 in 10.0 mi WNW 5.8 mph - N/A   Scattered Clouds
11:01 AM 30.2 °F 25.4 °F 19.4 °F 64% 30.22 in 10.0 mi West 4.6 mph - N/A   Mostly Cloudy
11:53 AM 33.1 °F 28.7 °F 19.9 °F 59% 30.23 in 10.0 mi North 4.6 mph - N/A   Mostly Cloudy
12:08 PM 32.0 °F 25.6 °F 19.4 °F 60% 30.20 in 10.0 mi North 6.9 mph - N/A   Scattered Clouds
12:15 PM 35.6 °F 30.7 °F 21.2 °F 56% 30.19 in 10.0 mi Variable 5.8 mph - N/A   Mostly Cloudy
12:29 PM 35.6 °F 32.8 °F 19.4 °F 52% 30.18 in 10.0 mi WSW 3.5 mph - N/A   Scattered Clouds
12:53 PM 35.1 °F 29.3 °F 19.9 °F 54% 30.20 in 10.0 mi NNW 6.9 mph - N/A   Partly Cloudy
1:53 PM 37.0 °F 29.8 °F 19.9 °F 50% 30.19 in 10.0 mi WNW 10.4 mph - N/A   Scattered Clouds
2:53 PM 36.0 °F 29.6 °F 19.0 °F 50% 30.19 in 10.0 mi NW 8.1 mph - N/A   Partly Cloudy
3:53 PM 36.0 °F 31.1 °F 19.0 °F 50% 30.19 in 10.0 mi NNW 5.8 mph - N/A   Clear
4:53 PM 35.1 °F 31.0 °F 19.0 °F 52% 30.19 in 10.0 mi WNW 4.6 mph - N/A   Clear
5:53 PM 33.1 °F - 19.0 °F 56% 30.20 in 10.0 mi Calm Calm - N/A   Clear
6:53 PM 30.0 °F - 19.0 °F 64% 30.22 in 10.0 mi Calm Calm - N/A   Clear
7:53 PM 28.9 °F - 19.0 °F 67% 30.21 in 10.0 mi Calm Calm - N/A   Clear
8:53 PM 27.0 °F - 19.0 °F 72% 30.21 in 10.0 mi Calm Calm - N/A   Clear
9:53 PM 24.1 °F - 19.9 °F 84% 30.19 in 10.0 mi Calm Calm - N/A   Clear
10:53 PM 24.1 °F - 19.0 °F 81% 30.19 in 10.0 mi Calm Calm - N/A   Clear
11:53 PM 21.9 °F - 19.0 °F 89% 30.17 in 10.0 mi Calm Calm - N/A   Clear